Location: Unspecified
(35.7250°N, 0.0000°E)
Time: 13:05:58
(UTC+00:00)

Explorer 7 - Pass Details

Date: 19 June 2019
Orbit: 485 x 680 km, 50.3° (Epoch: 23 July)

Event Time Altitude Azimuth Distance (km) Brightness Sun altitude
Rises 13:27:01 0° 311° (NW) 2,949 10.6 67.8°
Reaches altitude 10° 13:30:16 10° 334° (NNW) 2,071 9.9 67.2°
Maximum altitude 13:33:05 15° 11° (N) 1,760 9.4 66.7°
Drops below altitude 10° 13:35:57 10° 47° (NE) 2,107 9.7 66.1°
Sets 13:39:17 0° 69° (ENE) 3,031 10.3 65.5°
